This is the latest recevied weather packets stored in our database for station/object 4S6DRJ-13. If no packets are shown the sender has not sent any weather packets the latest 10 day(s).
| Time | Temp. | Humidity | Pressure | Rain* | Wind** | Luminosity | Snow |
|---|---|---|---|---|---|---|---|
| 1787939785 | 27.78° C | 85% | 1011.2 hPa | 0 mm | 1.34 m/s, 232° | 0 W/m² | - |
| 1787939724 | 27.78° C | 85% | 1011.1 hPa | 0 mm | 0 m/s | 0 W/m² | - |
| 1787939664 | 27.78° C | 85% | 1011.2 hPa | 0 mm | 0.89 m/s, 100° | 0 W/m² | - |
| 1787939603 | 27.78° C | 85% | 1011.3 hPa | 0 mm | 0.89 m/s, 223° | 0 W/m² | - |
| 1787939541 | 27.78° C | 85% | 1011.1 hPa | 0 mm | 0.89 m/s, 192° | 0 W/m² | - |
| 1787939481 | 27.78° C | 85% | 1011.3 hPa | 0 mm | 0.89 m/s, 68° | 0 W/m² | - |
| 1787939420 | 27.78° C | 85% | 1011.2 hPa | 0 mm | 0.45 m/s, 227° | 0 W/m² | - |
| 1787939359 | 27.78° C | 85% | 1011.3 hPa | 0 mm | 0 m/s | 0 W/m² | - |
| 1787939298 | 27.78° C | 85% | 1011.2 hPa | 0 mm | 0.45 m/s, 220° | 0 W/m² | - |
| 1787939237 | 27.78° C | 85% | 1011.3 hPa | 0 mm | 0 m/s | 0 W/m² | - |
| 1787939176 | 27.78° C | 85% | 1011.4 hPa | 0 mm | 0.89 m/s, 201° | 0 W/m² | - |
| 1787939115 | 27.78° C | 85% | 1011.3 hPa | 0 mm | 1.34 m/s, 241° | 0 W/m² | - |
| 1787939053 | 27.78° C | 85% | 1011.3 hPa | 0 mm | 0.89 m/s, 194° | 0 W/m² | - |
| 1787938993 | 27.78° C | 85% | 1011.2 hPa | 0 mm | 1.79 m/s, 204° | 0 W/m² | - |
| 1787938932 | 27.78° C | 85% | 1011.3 hPa | 0 mm | 1.34 m/s, 236° | 0 W/m² | - |
| 1787938871 | 27.78° C | 85% | 1011.2 hPa | 0 mm | 0.89 m/s, 275° | 0 W/m² | - |
| 1787938809 | 27.78° C | 85% | 1011.2 hPa | 0 mm | 0 m/s | 0 W/m² | - |
| 1787938749 | 27.78° C | 85% | 1011.3 hPa | 0 mm | 0.45 m/s, 207° | 0 W/m² | - |
| 1787938687 | 27.78° C | 85% | 1011.3 hPa | 0 mm | 1.79 m/s, 215° | 0 W/m² | - |
| 1787938627 | 27.78° C | 85% | 1011.3 hPa | 0 mm | 1.79 m/s, 250° | 0 W/m² | - |
| 1787938566 | 27.78° C | 85% | 1011.2 hPa | 0 mm | 0.89 m/s, 259° | 0 W/m² | - |
| 1787938504 | 27.78° C | 85% | 1011.3 hPa | 0 mm | 0.89 m/s, 237° | 0 W/m² | - |
| 1787938444 | 27.78° C | 85% | 1011.3 hPa | 0 mm | 1.34 m/s, 262° | 0 W/m² | - |
| 1787938382 | 27.78° C | 85% | 1011.2 hPa | 0 mm | 1.34 m/s, 228° | 0 W/m² | - |
| 1787938321 | 27.78° C | 85% | 1011.3 hPa | 0 mm | 0.89 m/s, 181° | 0 W/m² | - |
* Rain latest hour (hover to see other rain measurements)
** Current wind speed in m/s (hover to see current wind gust speed)